Wind_Speed
28 27 26 26 27 27 26 25 23 23 22 22 20 18 17 16 15 14 14 14 15 15 15 16 16 15 15 15 15 16 17 17 17 17 17 18 18 18 17 18 18 19 18 17
30 29 28 28 28 27 27 26 26 25 25 23 21 19 18 17 16 16 16 16 16 16 17 18 18 18 17 17 17 17 17 17 18 18 18 18 19 20 19 19 20 18 18 18
30 30 29 30 29 29 28 27 26 26 25 24 23 22 21 20 19 18 18 18 18 18 18 18 19 19 20 19 19 19 19 19 19 20 20 20 20 20 20 20 20 19 19 19
29 31 31 30 29 29 28 28 28 27 25 25 24 23 23 22 22 21 20 20 20 20 20 20 21 22 21 22 21 21 21 21 21 22 22 22 22 21 22 22 21 21 21 21
30 30 30 30 29 28 28 29 28 27 26 25 25 24 24 24 23 23 22 22 22 22 22 22 22 23 24 23 23 23 23 23 23 24 24 24 23 23 23 23 23 22 22 22
31 29 29 30 29 28 29 30 29 28 27 27 26 26 26 25 25 25 24 23 24 24 25 25 25 25 25 25 25 24 24 24 25 25 25 25 25 25 25 24 24 23 23 22
31 30 30 31 30 29 30 30 29 29 29 29 29 29 28 27 27 26 26 26 26 26 27 27 26 26 26 26 26 25 25 26 25 25 26 26 27 26 26 26 25 24 24 24
30 30 30 32 31 31 31 30 30 30 30 30 31 30 30 29 28 28 27 27 27 27 27 27 27 27 27 27 26 26 27 28 27 27 28 28 29 28 27 26 26 25 25 25
30 31 31 31 31 31 30 30 31 31 31 32 32 31 30 30 29 29 29 29 29 29 28 28 28 28 28 27 26 27 28 28 28 29 30 30 30 29 28 27 26 26 25 26
31 31 31 30 30 30 30 31 32 32 32 32 31 31 31 31 31 31 31 31 30 30 30 30 30 30 28 28 29 29 29 29 30 30 30 31 31 31 30 29 27 27 27 28
32 31 31 31 31 31 31 32 32 32 31 31 31 32 32 32 32 32 32 32 32 32 31 31 31 31 30 30 30 30 29 29 30 30 31 31 32 31 31 31 30 29 29 29
31 31 31 31 30 31 31 32 32 32 31 31 32 32 32 33 33 32 32 32 32 32 32 32 32 32 32 32 31 31 31 31 30 31 32 32 32 32 32 31 30 30 30 31
30 30 30 30 31 31 31 31 31 32 32 31 32 32 32 32 32 33 33 33 33 33 33 33 33 33 33 33 33 32 32 32 32 32 33 33 33 32 32 31 31 32 32 32
30 29 30 30 30 29 30 31 31 31 32 32 32 33 33 32 32 33 33 34 33 33 34 34 34 35 34 34 33 32 32 32 32 33 33 33 32 32 31 32 32 33 32 32
30 30 30 30 30 30 30 30 30 30 31 32 32 33 33 33 33 33 33 34 34 34 34 35 35 35 35 34 34 34 33 33 33 33 33 33 32 32 31 32 32 32 32 32
30 30 29 29 29 30 30 30 31 31 31 31 32 32 32 33 33 33 33 34 34 34 35 34 33 33 34 34 34 34 34 34 34 34 33 32 32 32 32 32 32 32 32 33
29 28 28 28 29 29 30 31 31 31 31 31 30 30 31 32 32 33 33 33 33 33 34 34 33 33 33 33 33 33 33 33 33 33 33 32 32 32 33 33 33 33 33 33
28 28 28 28 28 29 29 30 30 30 30 30 29 29 30 31 31 32 32 32 32 32 33 33 33 33 33 33 33 33 33 32 31 32 32 32 32 33 33 34 34 34 34 33
26 26 26 27 28 28 29 29 29 29 29 28 28 28 29 30 30 30 30 30 31 32 32 32 32 32 32 32 32 33 32 32 32 32 32 32 32 33 33 33 34 34 34 33
23 24 24 24 25 25 26 26 26 27 27 27 27 28 29 29 29 29 28 28 29 29 30 30 30 30 31 31 31 31 32 32 32 32 33 33 33 34 34 34 34 33 33 33
21 21 22 22 21 22 23 23 24 25 25 25 26 26 26 27 26 26 26 26 27 27 28 29 29 29 30 30 31 31 31 31 31 32 33 33 33 34 34 35 34 34 34 34
18 18 18 19 20 20 21 21 21 22 22 22 23 23 23 23 24 24 24 25 25 26 26 27 27 28 28 29 29 29 29 30 31 32 32 32 33 33 33 33 33 33 33 33
15 16 16 16 17 18 18 19 19 19 20 20 21 21 20 20 21 22 22 23 24 24 25 26 26 26 27 27 27 27 28 29 30 30 30 31 32 32 33 33 33 33 31 31
14 14 14 14 14 15 15 16 16 17 17 18 18 18 18 19 20 21 22 23 24 24 24 24 24 24 25 25 25 26 26 27 27 28 29 30 31 31 32 32 32 32 31 30
11 12 13 13 14 14 15 15 15 16 17 17 18 19 19 20 21 21 21 22 23 23 22 22 22 22 24 24 24 25 25 26 27 28 29 30 30 30 31 30 30 29 29 29
11 11 12 12 13 13 13 14 14 15 16 16 17 18 19 19 20 20 21 21 21 22 22 22 22 23 23 23 24 24 25 26 27 28 28 29 29 29 29 29 28 28 28 29
10 10 11 11 11 12 12 12 12 13 14 14 15 16 17 17 18 18 18 19 19 20 20 21 22 23 23 23 24 25 26 26 27 27 28 28 28 28 28 28 28 28 28 28
Wind_Direction
230 234 239 240 240 242 243 243 245 252 258 261 263 264 265 268 270 270 272 276 276 275 277 280 281 285 288 293 295 291 291 294 299 304 306 308 310 307 305 303 301 301 298 297
235 236 239 240 241 243 244 245 248 252 256 260 260 262 263 264 267 270 274 276 274 275 275 278 281 283 286 290 292 293 292 291 295 299 301 304 305 306 302 298 301 300 298 297
236 238 240 241 242 244 245 246 248 251 255 257 258 261 263 264 264 269 275 276 275 274 275 275 277 281 283 289 293 293 291 290 291 293 296 299 301 303 302 302 302 299 299 297
237 240 240 243 245 245 246 246 247 249 253 254 256 258 260 262 263 266 271 275 278 275 274 276 278 280 283 288 289 290 288 286 286 289 292 294 296 298 298 298 298 298 296 294
237 241 244 245 245 246 246 246 247 248 249 251 254 257 259 260 261 264 269 271 272 272 272 275 278 280 282 285 286 287 287 286 286 287 289 290 291 293 295 295 295 295 294 294
238 240 244 247 246 246 246 247 246 247 247 249 252 255 258 260 261 264 267 269 270 270 270 272 275 279 281 283 284 285 285 285 285 287 288 288 289 289 292 292 291 291 293 294
239 241 244 247 247 247 245 246 246 246 248 249 251 253 256 258 260 263 265 267 269 269 269 270 273 277 281 281 281 281 283 283 283 284 285 287 288 289 290 290 289 289 290 292
239 241 244 247 248 248 248 247 246 248 249 250 251 252 255 258 261 263 265 267 268 269 270 270 273 275 279 280 279 280 283 282 283 283 283 285 288 289 290 289 287 288 290 291
240 242 245 248 249 249 249 248 248 248 249 249 250 252 254 257 260 263 265 267 268 268 269 270 273 275 278 279 279 279 281 282 284 283 281 284 287 289 290 288 286 286 289 291
242 243 247 248 248 249 249 249 249 249 250 251 252 253 255 257 259 262 263 264 266 267 267 268 272 275 276 277 280 282 283 282 282 283 285 285 286 287 287 287 285 284 287 288
243 246 248 248 249 249 249 249 250 250 251 252 252 252 255 257 259 261 262 264 265 266 268 270 270 270 273 276 277 280 281 282 283 285 286 287 285 285 287 287 287 285 286 288
244 247 249 250 251 250 249 249 249 249 250 250 252 254 256 257 259 260 262 263 265 266 268 269 269 269 272 275 278 280 281 283 282 283 285 286 287 286 287 287 285 285 286 288
246 248 250 251 252 250 249 248 248 248 250 251 253 255 256 258 260 261 262 263 264 266 267 267 267 269 272 275 277 280 282 283 282 284 284 285 286 285 284 284 285 286 287 288
247 249 250 251 252 252 250 249 248 249 252 253 255 257 259 260 261 261 262 263 264 265 267 267 268 270 272 274 276 278 280 282 281 282 285 286 286 286 285 285 285 286 286 287
248 250 251 250 249 249 250 250 251 252 254 256 257 259 260 262 261 261 262 263 264 265 267 269 270 271 272 273 274 275 277 279 281 283 284 285 286 287 288 288 287 287 287 288
247 248 250 249 248 249 250 250 252 255 257 258 258 260 261 262 262 263 264 264 265 266 267 268 269 271 273 274 274 274 274 276 279 281 282 283 285 286 287 287 287 288 288 288
245 246 247 247 248 250 250 250 253 255 256 258 259 260 261 262 262 264 265 266 266 266 266 267 268 270 273 273 273 274 275 276 277 278 280 282 284 286 286 286 287 289 289 289
244 245 246 246 248 249 249 251 253 254 256 257 259 260 260 260 262 264 267 267 267 266 266 267 268 271 271 271 272 273 274 276 277 279 280 282 284 286 286 287 288 288 288 289
242 245 246 247 249 250 249 250 252 254 256 258 260 261 260 261 262 265 267 268 267 266 266 267 269 271 271 272 274 274 274 275 277 279 281 283 284 286 287 287 289 290 289 288
242 245 247 249 249 249 249 251 253 255 256 259 261 261 262 262 263 264 265 267 268 269 270 270 270 271 272 273 274 276 275 275 277 280 282 283 285 286 287 287 287 288 287 287
244 246 247 247 248 248 249 253 257 258 258 259 261 262 262 262 263 264 266 268 269 271 272 272 271 271 273 273 274 275 276 277 278 280 282 284 285 286 287 287 288 287 287 286
245 247 249 249 250 250 252 256 260 260 259 259 260 262 263 263 263 263 265 268 269 270 272 273 273 273 274 274 274 275 276 278 280 281 282 283 284 285 286 287 287 287 287 286
247 249 252 253 253 253 254 257 259 260 260 261 262 263 263 263 263 264 266 268 270 271 273 273 272 273 275 275 275 275 277 279 281 283 284 284 284 286 288 288 288 289 289 288
248 250 253 257 258 255 256 258 260 262 262 262 263 265 265 266 266 268 270 271 273 274 274 273 272 273 275 275 275 276 279 281 283 284 286 286 287 288 290 291 291 290 289 290
249 250 252 255 257 259 260 262 263 265 266 265 266 269 270 270 272 272 271 271 273 274 275 274 273 274 276 277 277 279 282 285 285 286 287 288 289 290 290 291 290 290 290 289
248 248 248 251 255 258 262 265 267 268 270 269 268 269 270 271 272 273 273 275 276 276 275 274 276 279 280 280 281 283 286 288 288 289 290 291 292 293 292 290 289 290 291 291
248 250 250 251 252 256 262 266 269 270 272 273 273 272 271 271 272 273 275 275 276 278 279 278 280 284 285 284 286 287 288 290 291 292 294 295 295 294 293 291 290 291 291 290
Height
5864 5867 5869 5871 5873 5876 5879 5882 5885 5887 5887 5887 5888 5889 5889 5889 5889 5889 5889 5888 5888 5887 5886 5886 5885 5884 5883 5882 5880 5879 5878 5876 5875 5873 5871 5868 5865 5863 5860 5859 5857 5855 5853 5851
5856 5859 5862 5864 5867 5869 5872 5875 5877 5879 5881 5881 5882 5883 5884 5884 5884 5884 5884 5883 5883 5882 5882 5881 5880 5880 5879 5877 5876 5874 5873 5872 5870 5869 5867 5864 5862 5859 5856 5855 5852 5850 5849 5847
5850 5852 5854 5857 5860 5863 5865 5867 5870 5872 5874 5875 5876 5877 5878 5879 5879 5879 5879 5878 5878 5877 5877 5876 5875 5874 5873 5872 5871 5870 5868 5867 5866 5864 5862 5860 5858 5855 5853 5851 5849 5847 5845 5843
5843 5845 5847 5852 5853 5855 5857 5860 5862 5864 5867 5868 5869 5871 5872 5872 5873 5873 5873 5873 5872 5871 5871 5870 5869 5868 5867 5867 5866 5864 5863 5861 5860 5859 5857 5855 5852 5850 5848 5846 5844 5841 5839 5837
5835 5837 5839 5843 5845 5847 5850 5852 5854 5857 5859 5861 5862 5864 5864 5865 5866 5867 5867 5867 5866 5866 5865 5864 5863 5862 5862 5861 5860 5858 5857 5855 5854 5853 5851 5849 5847 5845 5842 5840 5838 5836 5833 5831
5827 5830 5833 5835 5837 5839 5842 5843 5847 5849 5851 5853 5855 5857 5857 5858 5859 5859 5860 5860 5859 5859 5858 5858 5857 5856 5855 5854 5853 5852 5850 5849 5847 5846 5844 5842 5840 5838 5836 5834 5832 5830 5828 5826
5818 5821 5824 5825 5828 5831 5835 5836 5838 5841 5843 5845 5847 5849 5850 5851 5851 5852 5852 5852 5852 5852 5851 5850 5850 5849 5848 5847 5845 5844 5843 5841 5840 5838 5837 5836 5834 5832 5830 5828 5825 5824 5822 5820
5811 5814 5817 5817 5820 5823 5825 5827 5829 5832 5834 5836 5838 5840 5841 5842 5843 5844 5844 5844 5844 5844 5843 5843 5842 5841 5840 5839 5838 5836 5835 5834 5832 5831 5830 5829 5827 5825 5822 5820 5818 5816 5814 5813
5803 5806 5807 5809 5811 5813 5816 5818 5820 5823 5825 5827 5828 5830 5832 5833 5834 5835 5836 5836 5836 5836 5835 5835 5834 5834 5833 5831 5830 5828 5827 5826 5824 5823 5822 5820 5819 5817 5815 5812 5810 5809 5807 5805
5793 5796 5798 5801 5802 5805 5807 5809 5811 5813 5815 5817 5819 5821 5823 5824 5825 5826 5826 5827 5827 5827 5827 5827 5826 5825 5824 5823 5822 5820 5819 5818 5816 5815 5813 5812 5810 5808 5807 5805 5803 5801 5799 5797
5784 5787 5790 5791 5794 5796 5798 5800 5802 5804 5806 5808 5810 5812 5813 5814 5816 5816 5817 5818 5818 5818 5818 5817 5817 5817 5816 5815 5813 5812 5810 5809 5807 5806 5805 5803 5801 5799 5798 5797 5794 5793 5791 5789
5776 5779 5781 5783 5785 5786 5788 5791 5793 5795 5796 5798 5800 5802 5803 5805 5806 5807 5808 5808 5808 5808 5808 5808 5808 5808 5807 5806 5804 5803 5801 5800 5799 5797 5796 5794 5792 5791 5789 5788 5786 5784 5782 5780
5767 5769 5771 5774 5776 5777 5779 5781 5783 5785 5787 5789 5790 5792 5793 5795 5796 5797 5798 5798 5798 5799 5799 5799 5798 5798 5798 5796 5795 5794 5793 5792 5790 5789 5787 5785 5784 5782 5780 5778 5776 5775 5772 5770
5758 5761 5763 5765 5767 5768 5770 5772 5774 5776 5778 5779 5781 5782 5783 5785 5786 5787 5787 5788 5788 5789 5789 5789 5788 5788 5788 5787 5786 5785 5784 5783 5781 5780 5778 5776 5774 5772 5771 5769 5767 5765 5763 5760
5750 5752 5754 5756 5758 5760 5761 5763 5765 5767 5768 5770 5771 5772 5773 5774 5776 5777 5777 5778 5778 5778 5779 5779 5778 5778 5777 5777 5776 5775 5774 5774 5772 5770 5769 5767 5765 5763 5761 5760 5758 5756 5753 5751
5740 5742 5744 5746 5749 5751 5752 5754 5756 5758 5759 5760 5761 5762 5763 5764 5765 5766 5767 5768 5768 5768 5768 5768 5768 5768 5767 5767 5766 5765 5764 5764 5762 5761 5759 5758 5756 5755 5753 5751 5748 5746 5744 5741
5731 5734 5736 5738 5740 5742 5743 5745 5747 5748 5749 5750 5752 5753 5754 5754 5755 5756 5757 5757 5757 5758 5758 5759 5758 5758 5757 5757 5756 5755 5754 5753 5752 5751 5750 5749 5747 5745 5743 5741 5739 5737 5734 5731
5723 5725 5727 5729 5731 5733 5734 5736 5737 5739 5740 5741 5743 5744 5745 5745 5746 5747 5747 5747 5748 5748 5748 5748 5748 5748 5748 5747 5746 5746 5745 5744 5743 5742 5740 5739 5737 5735 5733 5731 5729 5726 5724 5721
5714 5716 5718 5720 5722 5724 5725 5727 5729 5730 5732 5733 5734 5735 5736 5736 5737 5738 5738 5738 5738 5739 5739 5739 5738 5738 5738 5737 5737 5736 5735 5734 5733 5732 5731 5729 5727 5725 5723 5721 5719 5716 5714 5711
5707 5709 5711 5712 5714 5715 5717 5719 5720 5722 5723 5724 5725 5726 5727 5728 5728 5729 5729 5729 5729 5729 5729 5729 5728 5728 5728 5728 5727 5726 5725 5724 5723 5722 5721 5719 5717 5715 5713 5711 5709 5706 5704 5701
5701 5702 5704 5705 5707 5708 5710 5712 5713 5714 5715 5716 5717 5718 5719 5719 5720 5720 5720 5721 5721 5720 5720 5719 5719 5719 5719 5718 5717 5716 5715 5715 5714 5713 5711 5709 5707 5705 5703 5700 5698 5696 5693 5691
5696 5697 5698 5700 5701 5702 5704 5705 5706 5706 5707 5708 5709 5710 5710 5711 5712 5712 5713 5713 5713 5712 5712 5711 5711 5711 5710 5709 5708 5707 5706 5705 5704 5703 5701 5699 5697 5694 5692 5690 5687 5685 5682 5679
5691 5693 5694 5695 5696 5697 5698 5699 5699 5700 5700 5701 5702 5703 5703 5704 5705 5705 5705 5705 5705 5704 5704 5703 5703 5702 5701 5700 5699 5698 5697 5696 5694 5692 5691 5689 5686 5684 5682 5679 5677 5674 5671 5669
5688 5689 5690 5691 5691 5692 5693 5693 5694 5694 5695 5695 5696 5696 5697 5697 5698 5698 5698 5698 5697 5697 5696 5695 5695 5694 5693 5692 5691 5689 5688 5687 5685 5683 5681 5679 5676 5674 5671 5669 5666 5664 5661 5659
5684 5685 5686 5687 5688 5688 5689 5689 5689 5689 5689 5689 5690 5690 5691 5691 5691 5691 5691 5690 5690 5690 5689 5688 5688 5687 5686 5684 5683 5681 5680 5678 5676 5674 5672 5669 5666 5664 5661 5659 5656 5654 5652 5650
5681 5682 5683 5684 5684 5684 5684 5684 5684 5684 5684 5684 5684 5685 5685 5685 5684 5684 5684 5684 5683 5682 5682 5681 5680 5679 5678 5676 5675 5673 5671 5669 5667 5665 5662 5660 5657 5654 5652 5649 5647 5645 5643 5641
5678 5678 5679 5680 5680 5681 5681 5681 5681 5681 5681 5680 5680 5680 5680 5679 5678 5678 5677 5677 5676 5676 5675 5674 5673 5672 5670 5668 5667 5665 5663 5661 5659 5656 5653 5650 5648 5645 5643 5640 5638 5636 5633 5631